Denver, CO

3:21 PM MST on November 24, 2017 (GMT -0700)
Denver International

Weather History for KDEN - December, 2014

Change the Weather History Date:

Thursday, December 25, 2014

  Actual Average Record
Temperature  
Mean Temperature 33 °F 30 °F  
Max Temperature 46 °F 42 °F 69 °F (2005)
Min Temperature 19 °F 17 °F -15 °F (1876)
Degree Days  
Heating Degree Days 32 35  
Month to date heating degree days 711 877  
Since 1 July heating degree days 1965 2259  
Cooling Degree Days 0 0  
Month to date cooling degree days 0 0  
Year to date cooling degree days 701 769  
Moisture  
Dew Point 22 °F    
Average Humidity 65    
Maximum Humidity 92    
Minimum Humidity 37    
Precipitation  
Precipitation 0.10 in 0.01 in 0.61 in (1922)
Month to date precipitation 0.30 0.29  
Year to date precipitation 18.48 14.24  
Snow  
Snow 3.40 in - - ()
Month to date snowfall 4.4  
Since 1 July snowfall 8.4  
Snow Depth 0.00 in    
Sea Level Pressure  
Sea Level Pressure 29.63 in    
Wind  
Wind Speed 14 mph (NNE)    
Max Wind Speed 25 mph    
Max Gust Speed 29 mph    
Visibility 5 miles    
Events Fog , Snow    
T = Trace of Precipitation, MM = Missing Value Source: NWS Daily Summary

Daily Weather History Graph

Daily Weather History Graph

Search for Another Location

Airport or City:

Trip Planner

Search our weather history database for the weather conditions in past years. The results will help you decide how hot, cold, wet, or windy it might be!

Date:

Astronomy

Dec. 25, 2014 Rise Set
Actual Time 7:18 AM MST 4:39 PM MST
Civil Twilight 6:47 AM MST 5:09 PM MST
Nautical Twilight 6:13 AM MST 5:43 PM MST
Astronomical Twilight 5:40 AM MST 6:16 PM MST
Moon 9:53 AM MST (12/25) 9:15 PM MST (12/25)
Length of Visible Light 10h 22m
Length of Day
9h 21m
Waxing Crescent, 18% of the Moon is Illuminated
Dec 25
Waxing Crescent
Dec 28
First Quarter
Jan 4
Full
Jan 13
Last Quarter
Jan 20
New

Hourly Weather History & Observations

Time (MST) Temp. Windchill Dew Point Humidity Pressure Visibility Wind Dir Wind Speed Gust Speed Precip Events Conditions
12:53 AM 39.0 °F 31.0 °F 16.0 °F 39% 29.35 in 10.0 mi SSW 13.8 mph - N/A   Mostly Cloudy
1:53 AM 36.0 °F 27.5 °F 17.1 °F 46% 29.34 in 10.0 mi SSW 12.7 mph - N/A   Mostly Cloudy
2:53 AM 39.0 °F 29.9 °F 17.1 °F 41% 29.32 in 10.0 mi SSW 17.3 mph - N/A   Mostly Cloudy
3:53 AM 39.9 °F 31.1 °F 17.1 °F 40% 29.30 in 10.0 mi SSW 17.3 mph - N/A   Mostly Cloudy
4:53 AM 39.9 °F 31.8 °F 17.1 °F 40% 29.31 in 10.0 mi SSW 15.0 mph - N/A   Partly Cloudy
5:53 AM 37.0 °F 33.3 °F 17.1 °F 44% 29.34 in 10.0 mi SSW 4.6 mph - N/A   Partly Cloudy
6:53 AM 33.1 °F 26.1 °F 18.0 °F 54% 29.35 in 10.0 mi East 8.1 mph - N/A   Scattered Clouds
7:53 AM 35.1 °F 29.3 °F 21.0 °F 57% 29.37 in 10.0 mi ESE 6.9 mph - N/A   Scattered Clouds
8:53 AM 45.0 °F 40.1 °F 21.0 °F 39% 29.35 in 10.0 mi SE 9.2 mph - N/A   Mostly Cloudy
9:26 AM 30.0 °F 20.0 °F 19.0 °F 64% 29.44 in 10.0 mi WNW 12.7 mph - N/A   Mostly Cloudy
9:53 AM 33.1 °F 23.9 °F 19.9 °F 59% 29.44 in 10.0 mi NNW 12.7 mph - N/A   Mostly Cloudy
10:53 AM 37.9 °F 31.5 °F 21.9 °F 53% 29.43 in 10.0 mi NNE 9.2 mph - N/A   Mostly Cloudy
11:53 AM 39.9 °F 30.8 °F 28.0 °F 63% 29.44 in 10.0 mi NE 18.4 mph - N/A   Mostly Cloudy
12:23 PM 42.1 °F 33.9 °F 28.0 °F 58% 29.48 in 10.0 mi NE 17.3 mph 21.9 mph N/A   Mostly Cloudy
12:53 PM 39.9 °F 31.8 °F 28.9 °F 65% 29.44 in 10.0 mi NNE 15.0 mph - N/A   Mostly Cloudy
1:53 PM 37.0 °F 28.9 °F 30.0 °F 76% 29.49 in 10.0 mi North 12.7 mph - N/A   Overcast
2:53 PM 35.1 °F 25.9 °F 28.9 °F 78% 29.52 in 10.0 mi NNE 13.8 mph - 0.00 in   Overcast
3:26 PM 33.1 °F 24.4 °F 30.0 °F 89% 29.57 in 5.0 mi NNE 11.5 mph - 0.00 in Snow Light Snow
3:39 PM 32.0 °F 22.5 °F 30.0 °F 92% 29.57 in 3.0 mi NNE 12.7 mph - 0.00 in Snow Light Snow
3:41 PM 32.0 °F 22.1 °F 30.0 °F 92% 29.57 in 2.5 mi NNE 13.8 mph - 0.00 in Snow Light Snow
3:53 PM 30.9 °F 20.7 °F 28.9 °F 92% 29.57 in 2.5 mi NE 13.8 mph - 0.00 in Snow Light Snow
4:08 PM 30.9 °F 20.2 °F 30.0 °F 96% 29.59 in 0.2 mi NE 15.0 mph - 0.00 in   Overcast
4:34 PM 28.0 °F 14.9 °F 26.1 °F 92% 29.61 in 0.2 mi NNE 19.6 mph - 0.00 in Snow Light Snow
4:53 PM 27.0 °F 12.5 °F 25.0 °F 92% 29.63 in 0.2 mi NNE 23.0 mph - 0.00 in Snow Light Snow
4:57 PM 27.0 °F 12.8 °F 25.0 °F 92% 29.63 in 0.5 mi NNE 21.9 mph - 0.00 in Snow Light Snow
5:16 PM 26.1 °F 11.6 °F 24.1 °F 92% 29.65 in 2.0 mi NNE 21.9 mph 27.6 mph 0.00 in Snow Light Snow
5:53 PM 25.0 °F 10.6 °F 23.0 °F 92% 29.71 in 2.0 mi NNE 20.7 mph - 0.01 in Snow Light Snow
6:03 PM 25.0 °F 10.6 °F 23.0 °F 92% 29.70 in 1.8 mi NNE 20.7 mph - 0.00 in Snow Light Snow
6:10 PM 25.0 °F 11.7 °F 23.0 °F 92% 29.70 in 1.5 mi NNE 17.3 mph - 0.00 in Snow Light Snow
6:24 PM 25.0 °F 12.2 °F 23.0 °F 92% 29.72 in 1.2 mi North 16.1 mph - 0.01 in Snow Light Snow
6:33 PM 25.0 °F 11.3 °F 23.0 °F 92% 29.73 in 2.0 mi North 18.4 mph 26.5 mph 0.01 in Snow Light Snow
6:46 PM 24.1 °F 11.0 °F 23.0 °F 96% 29.74 in 2.0 mi NNE 16.1 mph - 0.01 in Snow Light Snow
6:53 PM 24.1 °F 12.0 °F 23.0 °F 96% 29.79 in 2.0 mi North 13.8 mph - 0.02 in Snow Light Snow
7:04 PM 24.1 °F 11.5 °F 23.0 °F 96% 29.76 in 2.0 mi North 15.0 mph - 0.01 in Snow Light Snow
7:07 PM 24.1 °F 12.0 °F 23.0 °F 96% 29.76 in 1.5 mi North 13.8 mph - 0.01 in Snow Light Snow
7:17 PM 24.1 °F 11.5 °F 21.9 °F 91% 29.76 in 2.0 mi North 15.0 mph - 0.01 in Snow Light Snow
7:28 PM 24.1 °F 12.0 °F 21.9 °F 91% 29.77 in 1.8 mi North 13.8 mph - 0.02 in Snow Light Snow
7:53 PM 24.1 °F 13.7 °F 21.9 °F 91% 29.82 in 1.0 mi North 10.4 mph - 0.03 in Snow Light Snow
8:08 PM 24.1 °F 15.2 °F 21.9 °F 91% 29.79 in 0.8 mi North 8.1 mph - 0.01 in Snow Light Snow
8:15 PM 23.0 °F 10.6 °F 21.9 °F 96% 29.81 in 0.5 mi North 13.8 mph - 0.02 in Fog , Snow Snow
8:24 PM 23.0 °F 10.6 °F 21.0 °F 92% 29.80 in 0.8 mi North 13.8 mph - 0.03 in Snow Light Snow
8:31 PM 23.0 °F 11.1 °F 21.0 °F 92% 29.80 in 1.2 mi North 12.7 mph - 0.03 in Snow Light Snow
8:40 PM 21.9 °F 6.5 °F 21.0 °F 96% 29.80 in 1.5 mi North 20.7 mph - 0.03 in Snow Light Snow
8:47 PM 21.2 °F 5.6 °F 19.4 °F 93% 29.81 in 2.0 mi NNE 20.7 mph 28.8 mph 0.03 in Snow Light Snow
8:48 PM 21.9 °F 6.9 °F 19.9 °F 92% 29.82 in 2.0 mi NNE 19.6 mph 28.8 mph 0.03 in Snow Light Snow
9:04 PM 21.9 °F 10.4 °F 19.9 °F 92% 29.83 in 2.0 mi NNE 11.5 mph - 0.00 in Snow Light Snow
9:31 PM 21.9 °F 11.7 °F 21.0 °F 96% 29.83 in 2.0 mi North 9.2 mph - 0.00 in Snow Light Snow
9:36 PM 21.9 °F 11.7 °F 21.0 °F 96% 29.84 in 2.0 mi North 9.2 mph - 0.00 in Snow Light Snow
9:53 PM 21.9 °F 11.0 °F 19.9 °F 92% 29.89 in 2.0 mi North 10.4 mph - 0.00 in Snow Light Snow
10:08 PM 21.9 °F 7.8 °F 19.9 °F 92% 29.84 in 2.0 mi North 17.3 mph - 0.01 in Snow Light Snow
10:21 PM 21.0 °F 5.7 °F 19.0 °F 92% 29.84 in 2.0 mi North 19.6 mph - 0.01 in Snow Light Snow
10:53 PM 19.9 °F 6.2 °F 18.0 °F 92% 29.90 in 2.0 mi North 15.0 mph - 0.01 in Snow Light Snow
11:21 PM 19.9 °F 5.7 °F 17.1 °F 89% 29.85 in 2.0 mi NNE 16.1 mph - 0.00 in Snow Light Snow
11:29 PM 19.0 °F 3.6 °F 17.1 °F 92% 29.84 in 2.0 mi North 18.4 mph - 0.00 in Snow Light Snow
11:53 PM 19.0 °F 6.1 °F 17.1 °F 92% 29.89 in 2.0 mi NNE 12.7 mph - 0.00 in   Overcast